St. Augustine, FL

1:45 AM EST on January 24, 2018 (GMT -0500)
Saint Augustine

Weather History for KSGJ - March, 2013

Change the Weather History Date:

Monday, March 18, 2013

  Actual Average Record
Temperature  
Mean Temperature 71 °F -  
Max Temperature 81 °F 69 °F 87 °F (1977)
Min Temperature 62 °F 53 °F 40 °F (1976)
Cooling Degree Days 6    
Growing Degree Days 21 (Base 50)    
Moisture  
Dew Point 60 °F    
Average Humidity 76    
Maximum Humidity 96    
Minimum Humidity 39    
Precipitation  
Precipitation 0.04 in - - ()
Sea Level Pressure  
Sea Level Pressure 30.00 in    
Wind  
Wind Speed 4 mph (SSW)    
Max Wind Speed 14 mph    
Max Gust Speed 17 mph    
Visibility 10 miles    
Events Rain    
Averages and records for this station are not official NWS values.
T = Trace of Precipitation, MM = Missing Value Source: NWS Daily Summary

Daily Weather History Graph

Daily Weather History Graph

Search for Another Location

Airport or City:

Trip Planner

Search our weather history database for the weather conditions in past years. The results will help you decide how hot, cold, wet, or windy it might be!

Date:

Astronomy

Mar. 18, 2013 Rise Set
Actual Time 7:31 AM EDT 7:35 PM EDT
Civil Twilight 7:07 AM EDT 7:59 PM EDT
Nautical Twilight 6:39 AM EDT 8:27 PM EDT
Astronomical Twilight 6:11 AM EDT 8:55 PM EDT
Moon 11:53 AM EDT (3/18) 1:10 AM EDT (3/18)
Length of Visible Light 12h 52m
Length of Day
12h 04m
Waxing Crescent, 40% of the Moon is Illuminated
Mar 18
Waxing Crescent
Mar 19
First Quarter
Mar 27
Full
Apr 3
Last Quarter
Apr 10
New

Hourly Weather History & Observations

Time (EDT) Temp. Heat Index Dew Point Humidity Pressure Visibility Wind Dir Wind Speed Gust Speed Precip Events Conditions
12:58 AM 63.0 °F - 60.1 °F 90% 30.06 in 10.0 mi South 5.8 mph - 0.02 in Rain Light Rain
1:58 AM 62.1 °F - 60.1 °F 93% 30.05 in 10.0 mi Calm Calm - 0.01 in   Partly Cloudy
2:58 AM 62.1 °F - 60.1 °F 93% 30.05 in 8.0 mi Calm Calm - N/A   Mostly Cloudy
3:58 AM 62.1 °F - 60.1 °F 93% 30.03 in 7.0 mi Calm Calm - 0.00 in Rain Light Rain
4:58 AM 62.1 °F - 61.0 °F 96% 30.01 in 10.0 mi Calm Calm - 0.00 in Rain Light Rain
5:58 AM 62.1 °F - 60.1 °F 93% 30.01 in 10.0 mi Calm Calm - 0.01 in   Partly Cloudy
6:58 AM 62.1 °F - 60.1 °F 93% 30.04 in 6.0 mi Calm Calm - 0.00 in   Overcast
7:58 AM 62.1 °F - 60.1 °F 93% 30.06 in 9.0 mi Calm Calm - 0.00 in   Overcast
8:58 AM 63.0 °F - 60.1 °F 90% 30.06 in 10.0 mi SSW 4.6 mph - N/A   Overcast
9:58 AM 64.0 °F - 61.0 °F 90% 30.07 in 10.0 mi Variable 3.5 mph - 0.00 in   Mostly Cloudy
10:58 AM 68.0 °F - 62.1 °F 81% 30.07 in 10.0 mi SSW 5.8 mph - N/A   Overcast
11:58 AM 73.0 °F - 62.1 °F 68% 30.06 in 10.0 mi Variable 5.8 mph - N/A   Mostly Cloudy
12:58 PM 75.9 °F - 61.0 °F 60% 30.04 in 10.0 mi SW 13.8 mph 17.3 mph N/A   Mostly Cloudy
1:58 PM 78.1 °F - 60.1 °F 54% 30.00 in 10.0 mi WSW 10.4 mph 17.3 mph N/A   Partly Cloudy
2:58 PM 80.1 °F 80.7 °F 59.0 °F 48% 29.96 in 10.0 mi SSW 11.5 mph - N/A   Scattered Clouds
3:58 PM 80.1 °F 79.9 °F 53.1 °F 39% 29.94 in 10.0 mi SW 11.5 mph 17.3 mph N/A   Scattered Clouds
4:58 PM 79.0 °F - 55.9 °F 45% 29.93 in 10.0 mi SW 10.4 mph 16.1 mph N/A   Clear
5:58 PM 78.1 °F - 57.9 °F 50% 29.93 in 10.0 mi SW 4.6 mph - N/A   Clear
6:58 PM 72.0 °F - 64.0 °F 76% 29.94 in 10.0 mi SSE 3.5 mph - N/A   Mostly Cloudy
7:58 PM 69.1 °F - 64.0 °F 84% 29.93 in 10.0 mi South 4.6 mph - N/A   Clear
8:58 PM 70.0 °F - 64.0 °F 81% 29.90 in 10.0 mi South 6.9 mph - N/A   Clear
9:58 PM 71.1 °F - 62.1 °F 73% 29.90 in 10.0 mi WSW 3.5 mph - N/A   Clear
10:58 PM 69.1 °F - 61.0 °F 75% 29.94 in 10.0 mi West 5.8 mph - N/A   Clear
11:58 PM 68.0 °F - 61.0 °F 78% 29.95 in 10.0 mi West 4.6 mph - N/A   Scattered Clouds